Location: Peterborough
(44.3091°N, 78.3197°W)
Time: 06:37:27
(UTC-04:00)

Vanguard 3 - Pass Details

Date: 01 March 2024
Orbit: 510 x 3234 km, 33.3° (Epoch: 24 April)

Event Time Altitude Azimuth Distance (km) Brightness Sun altitude
Rises 18:17:25 0° 219° (SW) 5,910 12.3 -3.5°
Reaches altitude 10° 18:21:14 10° 212° (SSW) 5,222 11.9 -4.2°
Maximum altitude 18:36:09 41° 150° (SSE) 4,019 10.5 -6.9°
Enters shadow 18:53:06 11° 90° (E) 5,986 10.8 -9.9°
